Starlink 30287

operational
NORAD ID: 57709 Int'l Des: 2023-129 Owner: SPXS Country: US Constellation: starlink
LEOCIRCULAR

About Starlink 30287

Description loading...

Live Position

Loading 3D Globe...

Upcoming Passes

Altitude History

Altitude vs Time

uPlot chart will show altitude changes over time

Two-Line Element Set

1 57709U 23129M 26037.12177558 .00000815 00000-0 75387-4 0 9997
2 57709 43.0040 292.0105 0001290 265.7115 94.3580 15.02534694135905
Epoch: Feb 6, 2026 • Age: 9 hours

Current Status

Altitude 560.9 km
Velocity 7.59 km/s
Sub-Earth Point 32.96°N, 117.76°E
Launch Date Aug 27, 2023
Age 2.4 years
Type internet

Technical Details

Classification Payload
Mass 730.00 kg
Dry Mass 700.00 kg
Total Mass 730.00 kg
Length 0.30 m
Diameter 4.10 m
Span 29.00 m
Shape Box + pan
Manufacturer SPXS
Bus Type Starlink V2M
Phase Status In Orbit
Owner/State SPXS/US

Large Constellations

Loading constellations...